Location: Ferma
(41.9500°N, 44.5167°E)
Time: 12:08:34
(UTC+00:00)

BREEZE-M DEB (TANK) - Visible Passes

Search period start: 29 May 2022 00:00
Search period end: 08 June 2022 00:00
Orbit: 338 x 14779 km, 49.6° (Epoch: 28 May)

Date Brightness Start Highest point End Pass type
(mag) Time Alt. Az. Time Alt. Az. Time Alt. Az.
29 May 8.2 15:00:18 10° WNW 17:12:45 67° WSW 17:55:13 10° SSE visible
30 May 8.9 19:26:54 10° NW 20:23:15 18° WNW 20:57:43 10° WSW visible
31 May 8.5 17:38:53 10° NW 19:13:50 33° W 19:53:55 10° SW visible
01 Jun 8.3 16:00:45 10° NW 17:59:41 50° W 18:41:12 10° S visible
02 Jun 8.3 14:27:24 10° WNW 16:39:19 69° WSW 17:25:11 10° SSE visible
03 Jun 8.9 18:48:50 10° NW 19:50:59 19° WNW 20:28:58 10° WSW visible
04 Jun 8.5 17:03:23 10° NW 18:41:15 35° W 19:24:12 10° SW visible
05 Jun 8.4 15:26:47 10° NW 17:26:39 52° W 18:11:13 10° S visible
07 Jun 9.0 18:11:17 10° NW 19:18:29 21° WNW 19:59:56 10° WSW visible
